Regional Weather Roundup
Issued by NWS

Home | Current Version | Previous Version | Graphics & Text | Print | Product List | Glossary On
Versions: 1 2 3 4 5 6 7 8 9 10 11 12 13 14 15 16 17 18 19 20 21 22 23 24 25 26 27
000
ASUS45 KPSR 221210
RWRAZ

ARIZONA HOURLY REGIONAL WEATHER ROUNDUP
NATIONAL WEATHER SERVICE PHOENIX AZ
500 AM MST WED MAR 22 2017

NOTE: FAIR INDICATES FEW OR NO CLOUDS BELOW 12,000 FEET WITH NO
SIGNIFICANT WEATHER AND/OR OBSTRUCTIONS TO VISIBILITY.

AZZ001>003-036-221300-
NORTHWEST ARIZONA

CITY           SKY/WX    TMP DP  RH WIND       PRES   REMARKS
BULLHEAD CITY  CLEAR     72  46  40 S12       29.86R
KINGMAN        CLOUDY    57  23  26 SE9       29.95S
6HR MIN TEMP:  55; 6HR MAX TEMP:  61;

$$

AZZ004>008-015-016-018-221300-
NORTH CENTRAL ARIZONA

CITY           SKY/WX    TMP DP  RH WIND       PRES   REMARKS
GRAND CANYON   CLOUDY    47  32  56 SW7       30.08R
6HR MIN TEMP:  39; 6HR MAX TEMP:  49;

WILLIAMS       MOCLDY    50  28  43 S13       30.08S
PRESCOTT       MOCLDY    51  32  48 VRB3      30.04S
6HR MIN TEMP:  47; 6HR MAX TEMP:  54;

FLAGSTAFF      PTCLDY    42  31  64 SW6       30.10S
6HR MIN TEMP:  39; 6HR MAX TEMP:  48;

PAYSON         CLEAR     54  32  43 E5        30.10S
PAGE           MOCLDY    60  24  25 SW9       29.95S
6HR MIN TEMP:  60; 6HR MAX TEMP:  68;

$$

AZZ009>014-017-221300-
NORTHEAST ARIZONA

CITY           SKY/WX    TMP DP  RH WIND       PRES   REMARKS
WINSLOW        PTCLDY    43  27  53 SE3       30.05S
6HR MIN TEMP:  40; 6HR MAX TEMP:  53;

SAINT JOHNS    PTCLDY    45  26  47 S7        30.10S
6HR MIN TEMP:  42; 6HR MAX TEMP:  53;

SHOW LOW       CLEAR     43  23  45 CALM      30.11F
$$

AZZ023-221300-
GREATER PHOENIX AREA

CITY           SKY/WX    TMP DP  RH WIND       PRES   REMARKS
PHOENIX        PTCLDY    67  42  40 E9        29.90R
6HR MIN TEMP:  67; 6HR MAX TEMP:  79;

BUCKEYE        CLOUDY    63  45  51 CALM      29.92R
LUKE AFB       MOCLDY    59  44  57 NW3       29.90R
6HR MIN TEMP:  59; 6HR MAX TEMP:  75;

DEER VALLEY    PTCLDY    60  43  53 NE3       29.92R
6HR MIN TEMP:  57; 6HR MAX TEMP:  71;

SCOTTSDALE     CLEAR     64  42  44 CALM      29.93S
6HR MIN TEMP:  64; 6HR MAX TEMP:  75;

MESA-GATEWAY   CLEAR     61  36  39 E7        29.93S
$$

AZZ027-028-221300-
SOUTHWEST MARICOPA COUNTY AND PINAL COUNTY

CITY           SKY/WX    TMP DP  RH WIND       PRES   REMARKS
CASA GRANDE    NOT AVBL
GILA BEND      FAIR      61  37  41 S7        29.91R HAZE
6HR MIN TEMP:  61; 6HR MAX TEMP:  73;

$$

AZZ503-504-507>509-221300-
SOUTHEAST ARIZONA

CITY           SKY/WX    TMP DP  RH WIND       PRES   REMARKS
TUCSON         CLEAR     60  35  39 SE9       29.99F
6HR MIN TEMP:  60; 6HR MAX TEMP:  75;

DAVIS-MONTHAN  CLEAR     59  34  39 SE9       29.98F
6HR MIN TEMP:  56; 6HR MAX TEMP:  69;

NOGALES        CLEAR     51  34  52 E6        30.04F
6HR MIN TEMP:  49; 6HR MAX TEMP:  59;

SIERRA VISTA   CLEAR     53  29  40 VRB5      30.09S
6HR MIN TEMP:  50; 6HR MAX TEMP:  66;

DOUGLAS        CLEAR     46  26  45 CALM      30.07S
6HR MIN TEMP:  45; 6HR MAX TEMP:  65;

SAFFORD        CLEAR     50  25  37 E6        30.00S
6HR MIN TEMP:  50; 6HR MAX TEMP:  70; 6HR PCP: TRACE;

$$

AZZ020-021-025-026-031-221300-
SOUTHWEST ARIZONA

CITY           SKY/WX    TMP DP  RH WIND       PRES   REMARKS
YUMA           MOCLDY    67  53  61 NW5       29.90F
6HR MIN TEMP:  67; 6HR MAX TEMP:  72;

$$

CAZ031-033-041-043-047-048-061-221300-
SOUTHERN CALIFORNIA

CITY           SKY/WX    TMP DP  RH WIND       PRES   REMARKS
DOWNTOWN L.A.  HVY RAIN  60  58  92 CALM      30.01R FOG
6HR MIN TEMP:  59; 6HR MAX TEMP:  60; 6HR PCP:  0.01;

L.A. AIRPORT   LGT RAIN  59  58  96 E3        30.01R FOG
6HR MIN TEMP:  58; 6HR MAX TEMP:  59; 6HR PCP:  0.01;

SAN DIEGO      LGT RAIN  60  57  89 S5        30.03S FOG
6HR MIN TEMP:  60; 6HR MAX TEMP:  64; 6HR PCP: TRACE;

BURBANK        CLOUDY    57  55  93 S5        30.01R FOG
6HR MIN TEMP:  56; 6HR MAX TEMP:  57; 6HR PCP:  0.01;

ONTARIO        CLOUDY    56  56 100 W9        30.00S
6HR MIN TEMP:  55; 6HR MAX TEMP:  56; 6HR PCP: TRACE;

RIVERSIDE      CLOUDY    57  57 100 CALM      30.00S FOG
6HR MIN TEMP:  56; 6HR MAX TEMP:  57; 6HR PCP:  0.07;

PALM SPRINGS   CLEAR     63  53  70 S7        29.91S
6HR MIN TEMP:  63; 6HR MAX TEMP:  71;

EL CENTRO NAS  PTCLDY    71  51  49 W22       29.92R
6HR MIN TEMP:  70; 6HR MAX TEMP:  72;

IMPERIAL       PTCLDY    69  54  58 VRB6      29.89S
6HR MIN TEMP:  68; 6HR MAX TEMP:  72;

BLYTHE         CLEAR     69  54  58 S8        29.88S
6HR MIN TEMP:  68; 6HR MAX TEMP:  74;

NEEDLES        CLEAR     72  48  42 W10       29.87R
6HR MIN TEMP:  72; 6HR MAX TEMP:  79;

$$

NVZ020-UTZ003-221300-
SOUTHERN NEVADA-UTAH

CITY           SKY/WX    TMP DP  RH WIND       PRES   REMARKS
LAS VEGAS      PTCLDY    64  45  49 S8        29.87R
6HR MIN TEMP:  64; 6HR MAX TEMP:  71;

SALT LAKE CITY LGT RAIN  53  47  79 SE9       29.90R
6HR MIN TEMP:  53; 6HR MAX TEMP:  60; 6HR PCP:  0.01;

$$

NMZ009-TXZ055-221300-
NEW MEXICO-WEST TEXAS

CITY           SKY/WX    TMP DP  RH WIND       PRES   REMARKS
ALBUQUERQUE    CLEAR     53  31  42 N8        30.12S
6HR MIN TEMP:  53; 6HR MAX TEMP:  64;

EL PASO        CLEAR     59  25  27 CALM      30.05R
6HR MIN TEMP:  55; 6HR MAX TEMP:  71;

$$


........................KEY........................
SKY/WX - SKY CONDITION/WEATHER
TMP    - TEMPERATURE IN FAHRENHEIT
DP     - DEW POINT IN FAHRENHEIT
RH     - RELATIVE HUMIDITY IN PERCENT
WIND   - DIRECTION AND SPEED IN MILES PER HOUR (MPH)
VRB    - VARIABLE WIND DIRECTION
PRES   - MEAN SEA LEVEL PRESSURE IN INCHES OF MERCURY
         F - FALLING PRESSURE   R - RISING PRESSURE
         S - STEADY PRESSURE
VSB    - VISIBILITY IN MILES
HX     - HEAT INDEX IN FAHRENHEIT
WCI    - WIND CHILL INDEX IN FAHRENHEIT
TC     - TEMPERATURE IN CELSIUS WHICH IS ALSO KNOWN AS
         TEMPERATURE IN CENTIGRADE
AFB    - AIR FORCE BASE
         LUKE AFB IS LUKE AIR FORCE BASE
         DAVIS-MONTHAN IS DAVIS-MONTHAN AIR FORCE BASE
NAS    - NAVAL AIR STATION
         EL CENTRO NAS IS EL CENTRO NAVAL AIR STATION
N/A    - NOT AVAILABLE





USA.gov is the U.S. government's official web portal to all federal, state and local government web resources and services.